Retour au catalogue

STARLINK-31763

ActifCommunicationsVLEO
NORAD 59623·PAYLOAD·🇺🇸 United States

Lancé Apr 28, 2024 depuis Cape Canaveral Space Force Station

Loading…

Prochains Passages (prochaines 24 heures)

TLE

FraisSource: CelesTrak SupGP

Époque: Sep 15, 2026, 01:59 UTC

1 59623C 24080Y   26258.08312500 -.00021305  00000+0 -77155-3 0  2589
2 59623  43.0043  48.6964 0001895 272.2002  79.9778 15.27593800    14

Suivez STARLINK-31763 en temps réel avec AllMySat

Download on the App Store